Regional Weather Roundup
Issued by NWS Charleston, WV

Home | Current Version | Previous Version | Text Only | Print | Product List | Glossary Off
Versions: 1 2 3 4 5 6 7 8 9 10 11 12 13 14 15 16 17 18 19 20 21 22 23 24 25 26 27 28 29 30 31 32 33 34 35 36 37 38 39 40 41 42 43 44 45 46 47 48 49 50

000
ASUS41 KRLX 201610
RWRRLX
West Virginia Regional Weather Roundup
National Weather Service Charleston WV
1200 PM EDT SAT SEP 20 2014

Note: "fair" indicates few or no clouds below 12,000 feet with no
significant weather and/or obstructions to visibility.

WVZ003-201700-
Northern Panhandle of West Virginia

CITY           SKY/WX    TMP DP  RH WIND       PRES   REMARKS
WHEELING       PTSUNNY   72  58  61 SW13G21   30.12F
$$

WVZ009-201700-
Northwest West Virginia

CITY           SKY/WX    TMP DP  RH WIND       PRES   REMARKS
PARKERSBURG    CLOUDY    75  59  57 S10       30.15F
$$

WVZ006-201700-
Western West Virginia

CITY           SKY/WX    TMP DP  RH WIND       PRES   REMARKS
HUNTINGTON     MOSUNNY   74  61  63 S12       30.13F
$$

WVZ015-201700-
West Central West Virginia

CITY           SKY/WX    TMP DP  RH WIND       PRES   REMARKS
CHARLESTON     MOSUNNY   76  60  57 S9        30.15F
$$

WVZ031-201700-
North Central West Virginia

CITY           SKY/WX    TMP DP  RH WIND       PRES   REMARKS
CLARKSBURG     CLOUDY    72  59  63 S9        30.17S
MORGANTOWN     PTSUNNY   75  56  51 VRB7      30.17F
$$

WVZ035-042-045-201700-
South Central West Virginia

CITY           SKY/WX    TMP DP  RH WIND       PRES   REMARKS
BECKLEY        SUNNY     71  56  58 S5        30.24F
BLUEFIELD      SUNNY     71  54  54 VRB6      30.26F
LEWISBURG      MOSUNNY   71  55  58 CALM      30.25F
$$

WVZ047-201700-
Northern Mountains of West Virginia

CITY           SKY/WX    TMP DP  RH WIND       PRES   REMARKS
ELKINS         SUNNY     74  57  55 S8        30.21F
$$

WVZ052-201700-
Eastern Panhandle of West Virginia

CITY           SKY/WX    TMP DP  RH WIND       PRES   REMARKS
MARTINSBURG    SUNNY     75  55  49 SE12      30.21F
PETERSBURG     SUNNY     78  52  40 S9        30.18F
$$



USA.gov is the U.S. government's official web portal to all federal, state and local government web resources and services.